Regional Weather Roundup
Issued by NWS

Home | Current Version | Previous Version | Graphics & Text | Print | Product List | Glossary On
Versions: 1 2 3 4 5 6 7 8 9 10 11 12 13 14 15 16 17 18 19 20 21 22 23 24 25 26 27 28 29 30 31 32 33 34 35 36 37 38 39 40 41 42 43 44 45 46 47 48 49 50
000
ASUS45 KSLC 211410
RWRUT

UTAH REGIONAL WEATHER ROUNDUP
NATIONAL WEATHER SERVICE SALT LAKE CITY UT
800 AM MDT TUE OCT 21 2014

UTZ001>011-023>025-211500-

NORTHERN UTAH

CITY           SKY/WX    TMP DP  RH WIND       PRES   REMARKS
BRIGHAM CITY   CLOUDY    60  43  52 S13       29.87R
DUGWAY         PTCLDY    59  41  51 S7        29.92
HILL AFB       MOCLDY    61  39  44 S21       29.89R
LOGAN          CLOUDY    59  43  55 S8        29.86R
OGDEN          PTCLDY    63  39  41 S17       29.87R
PROVO AIRPORT  MOCLDY    57  39  51 CALM      29.94S
SALT LAKE CITY PTCLDY    61  40  45 SE13      29.89R
VERNAL         MOCLDY    43  36  76 W5        30.04R
WENDOVER       CLEAR     55  32  41 NW7       29.92R
HEBER CITY     CLOUDY    50  41  71 N3        29.98S
WEST JORDAN    CLEAR     59  45  58 S15       29.93R

$$

UTZ012>022-026-027-211500-

SOUTHERN/CENTRAL UTAH

CITY           SKY/WX    TMP DP  RH WIND       PRES   REMARKS
BLANDING       MOCLDY    48  41  77 N5        30.20R
BRYCE CANYON   MOCLDY    34  32  92 SW3       30.16R
CEDAR CITY     CLEAR     49  39  68 S8        30.03R
DELTA          CLEAR     54  38  55 S9        29.97R
HANKSVILLE       N/A     45  34  65 CALM      30.03S
MILFORD        CLEAR     52  38  58 SW13      29.99S
MOAB/CYNLANDS  MOCLDY    59  41  51 CALM      30.00S
PRICE          MOCLDY    47  36  65 N3        30.05F
ST GEORGE      CLOUDY    61  39  44 SE6       29.96R
KANAB            N/A     46  36  66 CALM      30.09R

$$

REGIONAL REPORTS     COLORADO/ARIZONA

CITY           SKY/WX    TMP DP  RH WIND       PRES   REMARKS
CRAIG, CO      MOCLDY    37  34  89 CALM      30.11S
GRAND JUNCTION MOCLDY    56  37  49 SE13      30.05R
RIFLE          CLOUDY    45  38  76 CALM      30.10S
MONTROSE       MOCLDY    49  40  71 S8        30.13S
CORTEZ         MOCLDY    51  42  71 CALM      30.14R
PAGE, AZ       NOT AVBL
GRAND CANYON   CLEAR     30  27  88 CALM      30.16R
KINGMAN        PTCLDY    60  43  53 SE14      29.97R
FLAGSTAFF      CLEAR     34  31  88 CALM      30.17S

$$

REGIONAL REPORTS    NEVADA/IDAHO/WYOMING

CITY           SKY/WX    TMP DP  RH WIND       PRES   REMARKS
LAS VEGAS, NV  PTCLDY    70  37  29 S13G21    29.84S
ELY            CLEAR     51  33  50 S10       30.02R
ELKO           CLOUDY    44  33  65 W5        30.04R
POCATELLO, ID  LGT RAIN  47  43  86 W31G41    29.97R
BURLEY         LGT RAIN  41  37  86 W21G31    30.00R
EVANSTON, WY   MOCLDY    46  38  73 SE9       30.01F
ROCK SPRINGS   PTCLDY    50  35  56 S7        30.03S
KEMMERER       DRIZZLE   45  37  76 W5G21     30.04R

$$



USA.gov is the U.S. government's official web portal to all federal, state and local government web resources and services.